Regional Weather Roundup
Issued by NWS

Home | Current Version | Previous Version | Text Only | Print | Product List | Glossary Off
Versions: 1 2 3 4 5 6 7 8 9 10 11 12 13 14 15 16 17 18 19 20 21 22 23 24 25 26 27 28 29 30 31 32 33 34 35 36 37 38 39 40 41 42 43 44 45 46 47 48 49 50

000
ASUS45 KSLC 272110
RWRUT

UTAH REGIONAL WEATHER ROUNDUP
NATIONAL WEATHER SERVICE SALT LAKE CITY UT
300 PM MDT FRI MAR 27 2015

UTZ001>011-023>025-272200-

NORTHERN UTAH

CITY           SKY/WX    TMP DP  RH WIND       PRES   REMARKS
BRIGHAM CITY   SUNNY     65  29  25 SW5       30.25F
HILL AFB       SUNNY     65  30  26 VRB5      30.25F
LOGAN          SUNNY     65  34  31 S3        30.23F
OGDEN          SUNNY     67  32  27 W6        30.23F
PROVO AIRPORT  SUNNY     64  32  29 VRB3      30.25F
SALT LAKE CITY SUNNY     69  30  23 VRB3      30.23F
VERNAL         SUNNY     66  27  23 VRB5      30.21F
WENDOVER       SUNNY     63  27  25 E8        30.24F
HEBER CITY     SUNNY     68  28  22 E5        30.24F
WEST JORDAN    SUNNY     66  36  32 CALM      30.24F

$$

UTZ012>022-026-027-272200-

SOUTHERN/CENTRAL UTAH

CITY           SKY/WX    TMP DP  RH WIND       PRES   REMARKS
BLANDING       SUNNY     67  25  19 SW12G18   30.31F
BRYCE CANYON   SUNNY     64  22  20 W12       30.34F
CEDAR CITY     SUNNY     71  19  14 NW3       30.24F
DELTA          SUNNY     69  26  20 W3        30.24F
HANKSVILLE     SUNNY     73  21  14 SW3       30.20F
MILFORD        SUNNY     73  28  18 N5        30.22F
MOAB/CYNLANDS  SUNNY     70  23  17 VRB6      30.19F
PRICE          SUNNY     70  25  18 S6        30.23F
ST GEORGE      CLEAR     77  30  18 W7        30.16F
KANAB          SUNNY     73  19  13 S8        30.25F

$$

REGIONAL REPORTS     COLORADO/ARIZONA

CITY           SKY/WX    TMP DP  RH WIND       PRES   REMARKS
CRAIG, CO      MOSUNNY   65  30  27 NW6       30.23F
GRAND JUNCTION SUNNY     68  24  19 VRB3      30.20F
RIFLE          SUNNY     68  27  21 VRB6      30.20F
MONTROSE       SUNNY     67  22  18 N10       30.24F
CORTEZ         SUNNY     69  23  17 W12G17    30.24F
PAGE, AZ       SUNNY     72  23  16 VRB5      30.20F
GRAND CANYON   SUNNY     71   9   9 SW9G18    30.31F
KINGMAN        SUNNY     81  19  10 SW10G21   30.17F
FLAGSTAFF      SUNNY     71  14  11 SW13      30.32F

$$

REGIONAL REPORTS    NEVADA/IDAHO/WYOMING

CITY           SKY/WX    TMP DP  RH WIND       PRES   REMARKS
LAS VEGAS, NV  SUNNY     83  23  11 CALM      30.08F
ELY            SUNNY     73  22  14 W12       30.25F
ELKO           SUNNY     72  32  23 SW9       30.20F
POCATELLO, ID  MOSUNNY   70  34  26 W7        30.19F
BURLEY         SUNNY     72  35  25 VRB5      30.15F
EVANSTON, WY   MOSUNNY   63  30  28 W9G17     30.29F
ROCK SPRINGS   SUNNY     65  25  22 W21G26    30.23F
KEMMERER       SUNNY     59  30  33 W20       30.30S

$$


USA.gov is the U.S. government's official web portal to all federal, state and local government web resources and services.